Latest Coastal Weather Observations for Northern Endeavour (near 10.5S 126E)

IDD60701

Issued at 8:21 am CST Friday 18 August 2017 (issued every 10 minutes, with the page automatically refreshed every 10 minutes)

About coastal observations | Map of coastal stations | Coastal observations for NT | Marine services | Other Formats
Station Details ID: 200212 Name: NORTHERN ENDEAVOUR Lat: -10.61 Lon: 125.98 Height: 16.0 m
Data from the previous 72 hours. | See also: Recent months for locations in Northern Territory
Date/Time
CST
Temp
°C
Wind Pressure Rain since
9am
mm
Weather Cloud Vis
km
Sea
Height
m
Swell
Dir  Spd
kts
Gust
kts
hPa Trend Height
m
Period
s
Dir
18/08:20am 27.3 ENE 1 1 1012.3 - - - - 10 - - - -
18/08:10am 27.6 ENE 1 3 1012.2 - - - - 10 - - - -
18/08:00am 27.3 SSE 2 2 1012.0 - - - - 10 - - - -
18/07:50am 27.2 SSE 2 3 1011.9 - - - - 10 - - - -
18/07:40am 26.6 SE 2 4 1011.7 - - - - 10 - - - -
18/07:30am 25.9 SSW 2 2 1011.5 - - - - 10 - - - -
18/07:20am 25.6 SSW 1 3 1011.4 - - - - 10 - - - -
18/07:10am 25.7 WSW 1 1 1011.3 - - - - 10 - - - -
18/07:00am 25.6 SW 1 1 1011.2 - - - - 10 - - - -
18/06:50am 25.6 SSW 1 1 1011.0 - - - - 10 - - - -
18/06:40am 25.8 NNW 1 2 1010.9 - - - - 10 - - - -
18/06:30am 25.7 WNW 1 1 1010.8 - - - - 10 - - - -
18/06:20am 25.7 WNW 1 2 1010.7 - - - - 10 - - - -
18/06:10am 25.6 NE 1 1 1010.6 - - - - 10 - - - -
18/06:00am 25.6 WSW 1 1 1010.5 - - - - 10 - - - -
18/05:50am 25.7 S 2 1 1010.4 - - - - 10 - - - -
18/05:40am 25.8 S 2 4 1010.3 - - - - 10 - - - -
18/05:30am 25.7 SSE 2 3 1010.2 - - - - 10 - - - -
18/05:20am 25.8 SSE 1 1 1010.3 - - - - 10 - - - -
18/05:10am 25.8 ESE 2 3 1010.2 - - - - 10 - - - -
18/05:00am 25.7 ESE 2 3 1010.2 - - - Partly cloudy 10 - - - -
18/04:50am 25.8 ESE 2 3 1010.2 - - - Partly cloudy 10 - - - -
18/04:40am 25.8 ESE 2 4 1010.3 - - - Partly cloudy 10 - - - -
18/04:30am 25.8 E 3 3 1010.3 - - - - 10 - - - -
18/04:20am 25.8 ESE 3 3 1010.3 - - - - 10 - - - -
18/04:10am 25.8 ESE 4 5 1010.4 - - - - 10 - - - -
18/04:00am 25.9 SE 3 4 1010.3 - - - - 10 - - - -
18/03:50am 26.0 SSE 3 7 1010.3 - - - - 10 - - - -
18/03:40am 25.9 SSE 3 6 1010.3 - - - - 10 - - - -
18/03:30am 25.9 ESE 4 6 1010.5 - - - - 10 - - - -
18/03:20am 25.8 SE 3 3 1010.6 - - - - 10 - - - -
18/03:10am 25.9 SE 2 4 1010.6 - - - - 10 - - - -
18/03:00am 25.9 SE 2 4 1010.7 - - - - 10 - - - -
18/02:50am 25.9 SSE 2 4 1010.8 - - - - 9 - - - -
18/02:40am 26.0 SE 3 3 1010.8 - - - - 10 - - - -
18/02:30am 26.0 S 2 4 1010.9 - - - - 9 - - - -
18/02:20am 26.0 S 2 3 1011.1 - - - - 10 - - - -
18/02:10am 26.0 SE 2 3 1011.1 - - - - 9 - - - -
18/02:00am 26.0 SE 3 4 1011.2 - - - - 10 - - - -
18/01:50am 26.1 S 2 4 1011.3 - - - - 10 - - - -
18/01:40am 26.2 SSE 3 3 1011.4 - - - - 10 - - - -
18/01:30am 26.2 S 3 5 1011.4 - - - - 10 - - - -
18/01:20am 26.3 SSE 3 5 1011.6 - - - - 10 - - - -
18/01:10am 26.3 SSE 3 3 1011.7 - - - - 10 - - - -
18/01:00am 26.3 SSE 3 5 1011.7 - - - - 10 - - - -
18/12:50am 26.3 SSE 3 3 1011.8 - - - - 8 - - - -
18/12:40am 26.3 SE 5 6 1011.8 - - - - 10 - - - -
18/12:30am 26.3 SE 5 7 1011.9 - - - - 10 - - - -
18/12:20am 26.3 SSE 6 9 1011.9 - - - - 10 - - - -
18/12:10am 26.4 SE 5 7 1011.9 - - - - 10 - - - -
18/12:00am 26.4 SSE 5 7 1012.0 - - - - 10 - - - -
 
Date/Time
CST
Temp
°C
Wind Pressure Rain since
9am
mm
Weather Cloud Vis
km
Sea
Height
m
Swell
Dir  Spd
kts
Gust
kts
hPa Trend Height
m
Period
s
Dir
17/11:50pm 26.3 SE 5 6 1011.8 - - - - 10 - - - -
17/11:40pm 26.4 SE 5 6 1011.8 - - - - 10 - - - -
17/11:30pm 26.3 SE 5 7 1011.8 - - - - 10 - - - -
17/11:20pm 26.2 SE 5 6 1011.8 - - - - 10 - - - -
17/11:10pm 26.3 SE 5 5 1011.9 - - - - 10 - - - -
17/11:00pm 26.3 SE 5 6 1012.0 - - - - 10 - - - -
17/10:50pm 26.3 ESE 4 6 1012.0 - - - - 10 - - - -
17/10:40pm 26.4 SE 5 6 1012.1 - - - - 10 - - - -
17/10:30pm 26.4 SE 5 6 1012.1 - - - - 10 - - - -
17/10:20pm 26.3 SE 4 6 1012.0 - - - - 10 - - - -
17/10:10pm 26.4 SE 6 6 1011.9 - - - - 10 - - - -
17/10:00pm 26.6 SSE 5 6 1011.9 - - - - 10 - - - -
17/09:50pm 26.6 SE 6 6 1011.8 - - - - 10 - - - -
17/09:40pm 26.6 SE 6 8 1011.9 - - - - 10 - - - -
17/09:30pm 26.7 SSE 4 5 1011.8 - - - - 10 - - - -
17/09:20pm 26.7 SE 5 4 1011.7 - - - - 10 - - - -
17/09:10pm 26.7 SE 5 7 1011.6 - - - - 10 - - - -
17/09:00pm 26.6 SE 4 6 1011.4 - - - - 10 - - - -
17/08:50pm 26.7 SE 4 4 1011.4 - - - - 10 - - - -
17/08:40pm 26.8 SE 5 7 1011.3 - - - - 10 - - - -
17/08:30pm 26.8 SE 6 8 1011.2 - - - - 10 - - - -
17/08:20pm 26.7 SE 5 5 1011.2 - - - - 10 - - - -
17/08:10pm 26.7 SE 6 6 1011.1 - - - - 10 - - - -
17/08:00pm 26.7 SE 6 6 1010.9 - - - - 10 - - - -
17/07:50pm 27.2 SE 6 6 1010.8 - - - - 10 - - - -
17/07:40pm 27.1 SSE 6 7 1010.7 - - - - 10 - - - -
17/07:30pm 26.8 SE 5 6 1010.6 - - - - 10 - - - -
17/07:20pm 26.7 SE 5 5 1010.6 - - - - 10 - - - -
17/07:10pm 26.8 SE 5 5 1010.5 - - - - 10 - - - -
17/07:00pm 27.0 SE 5 7 1010.3 - - - - 10 - - - -
17/06:50pm 27.4 SE 5 6 1010.3 - - - - 10 - - - -
17/06:40pm 27.6 SE 5 6 1010.2 - - - - 10 - - - -
17/06:30pm 27.6 SE 5 6 1010.1 - - - - 10 - - - -
17/06:20pm 28.7 SSE 6 6 1010.0 - - - - 10 - - - -
17/06:10pm 27.9 SE 4 7 1010.0 - - - - 10 - - - -
17/06:00pm 29.3 SSE 5 6 1009.9 - - - - 10 - - - -
17/05:50pm 28.8 SSE 5 6 1009.9 - - - Partly cloudy 10 - - - -
17/05:40pm 28.1 SE 4 5 1009.9 - - - Partly cloudy 10 - - - -
17/05:30pm 29.9 SSE 5 6 1009.8 - - - Partly cloudy 10 - - - -
17/05:20pm 28.9 SSE 5 8 1009.8 - - - Partly cloudy 10 - - - -
17/05:10pm 28.7 SE 4 4 1009.8 - - - Partly cloudy 10 - - - -
17/05:00pm 28.5 SE 4 5 1009.7 - - - - 10 - - - -
17/04:50pm 29.9 SSE 5 5 1009.7 - - - Partly cloudy 10 - - - -
17/04:40pm 29.2 SSE 4 7 1009.6 - - - Partly cloudy 10 - - - -
17/04:30pm 29.9 SSE 5 6 1009.7 - - - Partly cloudy 10 - - - -
17/04:20pm 30.8 SSE 5 6 1009.7 - - - Partly cloudy 10 - - - -
17/04:10pm 29.9 SSE 5 6 1009.7 - - - Partly cloudy 10 - - - -
17/04:00pm 30.6 S 5 7 1009.6 - - - Partly cloudy 10 - - - -
17/03:50pm 30.5 S 4 9 1009.7 - - - Partly cloudy 10 - - - -
17/03:40pm 30.2 SSW 4 5 1009.7 - - - Partly cloudy 10 - - - -
17/03:30pm 30.1 S 4 8 1009.7 - - - Partly cloudy 10 - - - -
17/03:20pm 29.8 SSW 5 9 1009.7 - - - - 10 - - - -
17/03:10pm 29.3 S 5 10 1009.8 - - - Partly cloudy 10 - - - -
17/03:00pm 30.1 S 6 7 1009.8 - - - Partly cloudy 10 - - - -
17/02:50pm 29.9 SSW 5 11 1009.8 - - - Partly cloudy 10 - - - -
17/02:40pm 29.4 SW 6 7 1009.9 - - - Partly cloudy 9 - - - -
17/02:30pm 30.2 SSW 6 6 1010.1 - - - - 10 - - - -
17/02:20pm 30.0 SSW 5 10 1010.1 - - - Partly cloudy 10 - - - -
17/02:10pm 29.2 SW 6 5 1010.3 - - - Partly cloudy 10 - - - -
17/02:00pm 29.0 SW 6 8 1010.4 - - - Partly cloudy 10 - - - -
17/01:50pm 29.2 SW 7 10 1010.4 - - - Partly cloudy 9 - - - -
17/01:40pm 29.1 SW 8 11 1010.6 - - - Partly cloudy 9 - - - -
17/01:30pm 28.9 SW 8 12 1010.7 - - - Partly cloudy 10 - - - -
17/01:20pm 28.9 SW 8 11 1010.7 - - - Partly cloudy 10 - - - -
17/01:10pm 28.7 SW 7 10 1010.9 - - - Partly cloudy 10 - - - -
17/01:00pm 28.3 SW 7 8 1011.1 - - - Partly cloudy 10 - - - -
17/12:50pm 28.2 SW 7 8 1011.3 - - - Partly cloudy 10 - - - -
17/12:40pm 28.1 SW 7 8 1011.5 - - - Partly cloudy 10 - - - -
17/12:30pm 29.4 SW 7 8 1011.6 - - - Partly cloudy 10 - - - -
17/12:20pm 28.8 SW 8 10 1011.8 - - - Partly cloudy 10 - - - -
17/12:10pm 29.3 SW 7 9 1011.8 - - - Partly cloudy 10 - - - -
17/12:00pm 29.1 SW 7 9 1011.8 - - - Partly cloudy 10 - - - -
17/11:50am 28.7 SW 7 8 1011.9 - - - Partly cloudy 10 - - - -
17/11:40am 29.1 SW 7 8 1012.0 - - - - 10 - - - -
17/11:30am 28.4 SW 7 8 1012.1 - - - - 10 - - - -
17/11:20am 28.8 SSW 7 7 1012.2 - - - - 10 - - - -
17/11:10am 28.2 SSW 7 9 1012.3 - - - - 10 - - - -
17/11:00am 28.6 SSW 7 8 1012.4 - - - - 10 - - - -
17/10:50am 28.4 SSW 7 8 1012.4 - - - - 10 - - - -
17/10:40am 28.5 SSW 6 7 1012.5 - - - - 10 - - - -
17/10:30am 28.6 SSW 6 7 1012.6 - - - - 10 - - - -
17/10:20am 28.5 SSW 6 8 1012.5 - - - - 10 - - - -
17/10:10am 28.7 SSW 6 6 1012.5 - - - - 10 - - - -
17/10:00am 29.0 SSW 6 8 1012.4 - - - - 10 - - - -
17/09:50am 28.2 SSW 6 7 1012.4 - - - - 10 - - - -
17/09:40am 28.7 SSW 6 7 1012.3 - - - - 10 - - - -
17/09:30am 28.4 SSW 5 7 1012.2 - - - - 10 - - - -
17/09:20am 28.5 SSW 3 8 1012.2 - - - - 10 - - - -
17/09:10am 28.3 SSW 5 5 1012.1 - - - - 10 - - - -
17/09:00am 28.3 SSW 4 6 1012.0 - - - - 10 - - - -
17/08:50am 28.2 S 4 9 1011.9 - - - - 10 - - - -
17/08:40am 27.9 S 4 7 1011.8 - - - - 10 - - - -
17/08:30am 27.6 S 4 6 1011.7 - - - - 10 - - - -
17/08:20am 27.7 SSE 7 9 1011.7 - - - - 10 - - - -
17/08:10am 27.2 SSE 7 7 1011.6 - - - - 10 - - - -
17/08:00am 27.0 SSE 6 8 1011.5 - - - - 10 - - - -
17/07:50am 26.8 SSE 6 9 1011.4 - - - - 10 - - - -
17/07:40am 26.2 SSE 5 7 1011.4 - - - - 10 - - - -
17/07:30am 25.7 SSE 6 8 1011.3 - - - - 10 - - - -
17/07:20am 25.7 S 6 9 1011.2 - - - - 10 - - - -
17/07:10am 25.7 SSE 5 7 1011.1 - - - - 10 - - - -
17/07:00am 25.7 SSE 5 7 1011.0 - - - - 10 - - - -
17/06:50am 25.5 SSE 6 9 1010.9 - - - - 10 - - - -
17/06:40am 25.5 SSE 5 5 1010.8 - - - - 10 - - - -
17/06:30am 25.5 SSE 5 8 1010.6 - - - - 10 - - - -
17/06:20am 25.5 S 5 6 1010.5 - - - - 10 - - - -
17/06:10am 25.6 S 7 9 1010.4 - - - - 10 - - - -
17/06:00am 25.7 S 6 10 1010.4 - - - - 10 - - - -
17/05:50am 25.7 S 6 9 1010.3 - - - - 10 - - - -
17/05:40am 25.7 S 6 11 1010.3 - - - - 10 - - - -
17/05:30am 25.8 S 6 7 1010.2 - - - - 10 - - - -
17/05:20am 25.7 S 5 7 1010.3 - - - - 10 - - - -
17/05:10am 25.7 S 6 10 1010.3 - - - - 10 - - - -
17/05:00am 25.7 S 5 10 1010.3 - - - - 10 - - - -
17/04:50am 25.7 S 5 10 1010.4 - - - - 10 - - - -
17/04:40am 25.7 S 4 8 1010.4 - - - - 10 - - - -
17/04:30am 25.7 SSE 5 8 1010.3 - - - - 10 - - - -
17/04:20am 25.7 S 6 6 1010.3 - - - - 10 - - - -
17/04:10am 25.8 S 5 9 1010.3 - - - - 10 - - - -
17/04:00am 25.8 S 5 4 1010.3 - - - - 10 - - - -
17/03:50am 25.8 S 7 6 1010.3 - - - - 10 - - - -
17/03:40am 25.8 S 6 7 1010.3 - - - - 10 - - - -
17/03:30am 25.8 S 6 8 1010.4 - - - - 10 - - - -
17/03:20am 25.8 S 5 8 1010.4 - - - - 10 - - - -
17/03:10am 25.9 S 6 6 1010.5 - - - Partly cloudy 10 - - - -
17/03:00am 25.9 S 7 7 1010.5 - - - Partly cloudy 10 - - - -
17/02:50am 25.9 S 7 10 1010.6 - - - Partly cloudy 10 - - - -
17/02:40am 25.7 S 7 8 1010.6 - - - - 10 - - - -
17/02:30am 25.7 S 7 7 1010.6 - - - - 10 - - - -
17/02:20am 25.6 S 6 7 1010.7 - - - - 10 - - - -
17/02:10am 25.7 S 6 6 1010.8 - - - - 10 - - - -
17/02:00am 25.8 S 5 6 1011.0 - - - - 10 - - - -
17/01:50am 25.8 S 5 6 1011.0 - - - - 10 - - - -
17/01:40am 25.8 S 5 5 1011.1 - - - - 10 - - - -
17/01:30am 25.8 S 5 5 1011.3 - - - Partly cloudy 10 - - - -
17/01:20am 25.9 SSE 5 4 1011.3 - - - Partly cloudy 10 - - - -
17/01:10am 25.8 S 6 7 1011.3 - - - Partly cloudy 10 - - - -
17/01:00am 25.8 S 5 6 1011.4 - - - Partly cloudy 10 - - - -
17/12:50am 25.8 S 5 6 1011.6 - - - Partly cloudy 10 - - - -
17/12:40am 25.9 S 5 5 1011.6 - - - Partly cloudy 10 - - - -
17/12:30am 26.0 S 5 6 1011.7 - - - - 10 - - - -
17/12:20am 26.0 S 4 5 1011.8 - - - - 10 - - - -
17/12:10am 26.0 SE 3 5 1011.8 - - - - 10 - - - -
17/12:00am 26.0 ESE 4 6 1011.8 - - - - 10 - - - -
 
Date/Time
CST
Temp
°C
Wind Pressure Rain since
9am
mm
Weather Cloud Vis
km
Sea
Height
m
Swell
Dir  Spd
kts
Gust
kts
hPa Trend Height
m
Period
s
Dir
16/11:50pm 26.0 ESE 3 4 1011.9 - - - - 10 - - - -
16/11:40pm 26.0 ESE 5 5 1012.0 - - - Partly cloudy 10 - - - -
16/11:30pm 26.1 ESE 6 6 1012.0 - - - Partly cloudy 10 - - - -
16/11:20pm 26.1 ESE 6 7 1012.1 - - - Partly cloudy 10 - - - -
16/11:10pm 26.2 ESE 6 8 1012.1 - - - Partly cloudy 10 - - - -
16/11:00pm 26.3 ESE 4 7 1012.1 - - - Partly cloudy 10 - - - -
16/10:50pm 26.3 SE 5 6 1012.1 - - - Partly cloudy 10 - - - -
16/10:40pm 26.2 SE 5 9 1012.1 - - - Partly cloudy 10 - - - -
16/10:30pm 26.4 SSE 3 5 1012.1 - - - Partly cloudy 10 - - - -
16/10:20pm 26.3 SSE 4 5 1012.0 - - - - 10 - - - -
16/10:10pm 26.3 SSE 4 4 1011.9 - - - Partly cloudy 10 - - - -
16/10:00pm 26.4 SSE 5 6 1011.9 - - - Partly cloudy 10 - - - -
16/09:50pm 26.4 SE 4 7 1011.9 - - - Partly cloudy 10 - - - -
16/09:40pm 26.4 SSE 4 6 1011.7 - - - Partly cloudy 10 - - - -
16/09:30pm 26.4 SSE 5 8 1011.7 - - - Partly cloudy 10 - - - -
16/09:20pm 26.4 SSE 5 9 1011.7 - - - Partly cloudy 10 - - - -
16/09:10pm 26.5 SE 5 4 1011.6 - - - Partly cloudy 10 - - - -
16/09:00pm 26.5 SE 6 12 1011.5 - - - Partly cloudy 10 - - - -
16/08:50pm 26.5 SE 7 8 1011.3 - - - Partly cloudy 10 - - - -
16/08:40pm 26.5 SE 7 8 1011.3 - - - Partly cloudy 10 - - - -
16/08:30pm 26.5 SE 7 9 1011.1 - - - Partly cloudy 10 - - - -
16/08:20pm 26.6 SSE 7 9 1011.0 - - - Partly cloudy 10 - - - -
16/08:10pm 26.6 SSE 5 5 1010.9 - - - Partly cloudy 10 - - - -
16/08:00pm 26.7 SSE 6 8 1010.7 - - - Partly cloudy 10 - - - -
16/07:50pm 26.7 SSE 4 6 1010.7 - - - Partly cloudy 10 - - - -
16/07:40pm 26.8 SE 6 9 1010.5 - - - - 10 - - - -
16/07:30pm 27.1 SE 7 8 1010.5 - - - - 10 - - - -
16/07:20pm 27.3 SE 6 9 1010.4 - - - - 10 - - - -
16/07:10pm 27.2 SE 6 7 1010.4 - - - - 10 - - - -
16/07:00pm 27.8 SE 6 6 1010.3 - - - - 10 - - - -
16/06:50pm 27.7 SE 5 8 1010.2 - - - - 10 - - - -
16/06:40pm 27.5 SSE 4 9 1010.1 - - - - 10 - - - -
16/06:30pm 28.0 SE 6 9 1010.0 - - - - 10 - - - -
16/06:20pm 28.8 SE 5 6 1010.0 - - - - 10 - - - -
16/06:10pm 29.0 SE 5 7 1009.9 - - - - 10 - - - -
16/06:00pm 29.2 SE 5 8 1009.8 - - - - 10 - - - -
16/05:50pm 29.8 SE 6 8 1009.7 - - - - 10 - - - -
16/05:40pm 30.4 SE 6 6 1009.7 - - - - 10 - - - -
16/05:30pm 30.4 SE 5 9 1009.6 - - - - 10 - - - -
16/05:20pm 29.9 SE 6 6 1009.7 - - - - 10 - - - -
16/05:10pm 29.9 SE 6 9 1009.7 - - - - 10 - - - -
16/05:00pm 29.9 SE 7 10 1009.6 - - - - 10 - - - -
16/04:50pm 29.3 SE 5 8 1009.6 - - - - 10 - - - -
16/04:40pm 28.8 SE 5 6 1009.6 - - - - 10 - - - -
16/04:30pm 28.9 SE 6 8 1009.6 - - - Partly cloudy 10 - - - -
16/04:20pm 29.9 SE 6 7 1009.6 - - - Partly cloudy 10 - - - -
16/04:10pm 30.3 SE 6 8 1009.6 - - - Partly cloudy 10 - - - -
16/04:00pm 30.4 SE 6 8 1009.7 - - - Partly cloudy 10 - - - -
16/03:50pm 30.1 SE 6 8 1009.7 - - - Partly cloudy 10 - - - -
16/03:40pm 30.2 SE 6 6 1009.9 - - - Partly cloudy 10 - - - -
16/03:30pm 30.6 SE 6 8 1010.0 - - - Partly cloudy 10 - - - -
16/03:20pm 30.8 SE 6 9 1010.1 - - - Partly cloudy 10 - - - -
16/03:10pm 30.2 ESE 5 6 1010.3 - - - Partly cloudy 10 - - - -
16/03:00pm 30.3 SE 5 5 1010.4 - - - Partly cloudy 10 - - - -
16/02:50pm 30.0 SE 5 8 1010.5 - - - Partly cloudy 10 - - - -
16/02:40pm 29.7 ESE 5 6 1010.6 - - - Partly cloudy 10 - - - -
16/02:30pm 30.2 ESE 6 7 1010.8 - - - Partly cloudy 10 - - - -
16/02:20pm 30.2 ESE 4 5 1010.9 - - - Partly cloudy 10 - - - -
16/02:10pm 30.5 SE 6 6 1011.0 - - - Partly cloudy 10 - - - -
16/02:00pm 29.4 SE 5 9 1011.1 - - - - 10 - - - -
16/01:50pm 32.0 SE 4 5 1011.2 - - - - 10 - - - -
16/01:40pm 29.5 SSE 4 8 1011.3 - - - - 10 - - - -
16/01:30pm 30.0 SE 4 5 1011.5 - - - - 10 - - - -
16/01:20pm 29.0 SSE 4 5 1011.5 - - - - 10 - - - -
16/01:10pm 28.4 S 4 6 1011.7 - - - - 10 - - - -
16/01:00pm 29.3 SSE 3 5 1011.7 - - - - 10 - - - -
16/12:50pm 28.6 S 4 6 1011.8 - - - - 10 - - - -
16/12:40pm 28.4 S 5 5 1011.9 - - - - 10 - - - -
16/12:30pm 28.7 S 4 6 1012.0 - - - - 10 - - - -
16/12:20pm 28.2 S 4 5 1012.2 - - - - 10 - - - -
16/12:10pm 27.5 SSW 5 8 1012.3 - - - - 10 - - - -
16/12:00pm 27.6 SSW 4 5 1012.4 - - - - 10 - - - -
16/11:50am 29.0 S 6 7 1012.5 - - - - 10 - - - -
16/11:40am 28.6 S 6 8 1012.5 - - - - 10 - - - -
16/11:30am 28.6 S 6 6 1012.7 - - - - 10 - - - -
16/11:20am 28.9 S 6 6 1012.7 - - - - 10 - - - -
16/11:10am 28.7 S 5 6 1012.8 - - - - 10 - - - -
16/11:00am 28.8 S 4 7 1012.8 - - - - 10 - - - -
16/10:50am 28.6 S 4 6 1012.9 - - - - 10 - - - -
16/10:40am 28.4 SSW 5 7 1012.8 - - - - 10 - - - -
16/10:30am 28.1 SSW 5 6 1012.8 - - - - 10 - - - -
16/10:20am 28.0 S 6 7 1012.9 - - - - 10 - - - -
16/10:10am 28.3 S 6 8 1012.9 - - - Partly cloudy 10 - - - -
16/10:00am 28.0 S 3 8 1012.9 - - - Partly cloudy 10 - - - -
16/09:50am 27.9 SSW 5 5 1012.9 - - - Partly cloudy 10 - - - -
16/09:40am 29.3 SSW 5 7 1012.8 - - - Partly cloudy 10 - - - -
16/09:30am 31.4 S 5 8 1012.7 - - - Partly cloudy 10 - - - -
16/09:20am 30.2 S 5 9 1012.6 - - - Partly cloudy 10 - - - -
16/09:10am 28.1 SSW 6 10 1012.5 - - - Partly cloudy 10 - - - -
16/09:00am 27.9 S 5 4 1012.3 - - - Partly cloudy 10 - - - -
16/08:50am 27.6 SSW 6 7 1012.2 - - - Partly cloudy 10 - - - -
16/08:40am 27.4 S 6 8 1012.1 - - - Partly cloudy 10 - - - -
16/08:30am 27.0 S 6 8 1011.9 - - - Partly cloudy 10 - - - -
16/08:20am 26.8 S 6 6 1011.8 - - - - 10 - - - -
16/08:10am 27.0 S 7 8 1011.6 - - - - 10 - - - -
16/08:00am 26.6 SSW 5 11 1011.5 - - - - 10 - - - -
16/07:50am 26.2 S 5 8 1011.5 - - - - 10 - - - -
16/07:40am 25.7 S 5 6 1011.3 - - - - 10 - - - -
16/07:30am 25.4 S 6 6 1011.2 - - - Partly cloudy 10 - - - -
16/07:20am 25.4 SSW 6 10 1011.1 - - - - 10 - - - -
16/07:10am 25.3 S 5 10 1011.0 - - - - 10 - - - -
16/07:00am 25.3 S 4 5 1010.8 - - - - 10 - - - -
16/06:50am 25.3 S 4 7 1010.7 - - - - 10 - - - -
16/06:40am 25.3 SSE 3 5 1010.7 - - - - 10 - - - -
16/06:30am 25.1 SE 5 5 1010.5 - - - - 10 - - - -
16/06:20am 25.3 SE 3 3 1010.5 - - - - 10 - - - -
16/06:10am 25.0 SE 5 5 1010.5 - - - - 10 - - - -
16/06:00am 25.2 SE 3 5 1010.4 - - - - 10 - - - -
16/05:50am 25.2 SE 4 4 1010.3 - - - - 10 - - - -
16/05:40am 25.2 SE 4 7 1010.3 - - - - 10 - - - -
16/05:30am 25.2 SE 4 5 1010.4 - - - - 10 - - - -
16/05:20am 25.3 SE 3 4 1010.4 - - - - 10 - - - -
16/05:10am 25.2 ESE 4 6 1010.4 - - - - 10 - - - -
16/05:00am 25.2 ESE 4 4 1010.4 - - - - 10 - - - -
16/04:50am 25.3 ESE 3 4 1010.5 - - - - 10 - - - -
16/04:40am 25.4 SSE 2 4 1010.6 - - - - 8 - - - -
16/04:30am 25.3 ESE 4 5 1010.6 - - - - 10 - - - -
16/04:20am 25.4 ESE 4 6 1010.6 - - - - 10 - - - -
16/04:10am 25.3 SE 5 6 1010.6 - - - - 10 - - - -
16/04:00am 25.5 SE 4 5 1010.6 - - - - 10 - - - -
16/03:50am 25.6 SE 3 5 1010.5 - - - - 10 - - - -
16/03:40am 25.6 SE 4 5 1010.6 - - - - 10 - - - -
16/03:30am 25.6 SE 4 7 1010.7 - - - - 10 - - - -
16/03:20am 25.6 SE 5 8 1010.8 - - - - 10 - - - -
16/03:10am 25.6 SSE 4 6 1010.8 - - - - 10 - - - -
16/03:00am 25.6 SE 4 5 1010.8 - - - - 10 - - - -
16/02:50am 25.6 ESE 4 6 1010.9 - - - - 10 - - - -
16/02:40am 25.7 SSE 5 7 1011.0 - - - - 10 - - - -
16/02:30am 25.7 S 7 8 1011.1 - - - - 10 - - - -
16/02:20am 25.7 SSE 4 6 1011.1 - - - - 10 - - - -
16/02:10am 25.7 SSE 5 7 1011.2 - - - - 10 - - - -
16/02:00am 25.7 S 7 7 1011.3 - - - - 10 - - - -
16/01:50am 25.8 SE 6 10 1011.3 - - - - 10 - - - -
16/01:40am 25.9 S 7 8 1011.5 - - - - 10 - - - -
16/01:30am 25.9 S 8 11 1011.6 - - - - 10 - - - -
16/01:20am 25.9 S 7 7 1011.7 - - - - 10 - - - -
16/01:10am 25.9 S 7 11 1011.7 - - - Partly cloudy 10 - - - -
16/01:00am 25.8 S 7 8 1011.7 - - - - 10 - - - -
16/12:50am 25.9 SSE 7 7 1011.8 - - - - 10 - - - -
16/12:40am 26.0 SSE 7 7 1012.0 - - - - 10 - - - -
16/12:30am 26.0 SSE 7 12 1012.1 - - - - 10 - - - -
16/12:20am 26.1 SSE 6 11 1012.2 - - - - 10 - - - -
16/12:10am 26.1 SSE 6 7 1012.3 - - - - 10 - - - -
16/12:00am 26.1 S 6 8 1012.4 - - - - 10 - - - -
 
Date/Time
CST
Temp
°C
Wind Pressure Rain since
9am
mm
Weather Cloud Vis
km
Sea
Height
m
Swell
Dir  Spd
kts
Gust
kts
hPa Trend Height
m
Period
s
Dir
15/11:50pm 26.1 SSE 6 10 1012.5 - - - - 10 - - - -
15/11:40pm 26.1 S 8 11 1012.5 - - - - 10 - - - -
15/11:30pm 26.1 S 7 11 1012.5 - - - - 10 - - - -
15/11:20pm 26.1 S 7 10 1012.5 - - - - 10 - - - -
15/11:10pm 26.2 SSE 7 9 1012.6 - - - Partly cloudy 10 - - - -
15/11:00pm 26.2 SSE 6 7 1012.6 - - - Partly cloudy 10 - - - -
15/10:50pm 26.2 SSE 6 10 1012.6 - - - Partly cloudy 10 - - - -
15/10:40pm 26.3 SSE 6 9 1012.6 - - - - 10 - - - -
15/10:30pm 26.3 SSE 7 12 1012.6 - - - Partly cloudy 10 - - - -
15/10:20pm 26.3 SSE 8 10 1012.6 - - - Partly cloudy 10 - - - -
15/10:10pm 26.4 SSE 8 12 1012.6 - - - Partly cloudy 10 - - - -
15/10:00pm 26.4 S 7 9 1012.6 - - - Partly cloudy 10 - - - -
15/09:50pm 26.4 SSE 7 12 1012.6 - - - - 10 - - - -
15/09:40pm 26.4 SSE 9 11 1012.5 - - - - 10 - - - -
15/09:30pm 26.5 S 10 11 1012.4 - - - - 10 - - - -
15/09:20pm 26.5 SSE 8 10 1012.3 - - - Partly cloudy 10 - - - -
15/09:10pm 26.5 S 8 9 1012.3 - - - Partly cloudy 10 - - - -
15/09:00pm 26.5 S 8 12 1012.2 - - - Partly cloudy 10 - - - -
15/08:50pm 26.5 SSE 10 13 1012.1 - - - - 10 - - - -
15/08:40pm 26.6 SSE 8 10 1012.1 - - - - 10 - - - -
15/08:30pm 26.7 SSE 7 10 1012.0 - - - Partly cloudy 10 - - - -
15/08:20pm 26.6 SSE 9 12 1011.9 - - - Partly cloudy 10 - - - -
15/08:10pm 26.6 SSE 8 12 1011.8 - - - Partly cloudy 10 - - - -
15/08:00pm 26.6 SSE 8 8 1011.8 - - - Partly cloudy 10 - - - -
15/07:50pm 26.7 SSE 6 10 1011.7 - - - Partly cloudy 10 - - - -
15/07:40pm 26.8 SSE 7 8 1011.7 - - - - 10 - - - -
15/07:30pm 26.8 SSE 7 8 1011.7 - - - - 10 - - - -
15/07:20pm 27.0 SSE 8 12 1011.6 - - - - 10 - - - -
15/07:10pm 27.1 SSE 8 10 1011.5 - - - Partly cloudy 10 - - - -
15/07:00pm 27.2 SSE 7 9 1011.5 - - - Partly cloudy 10 - - - -
15/06:50pm 27.6 SSE 7 8 1011.4 - - - Partly cloudy 10 - - - -
15/06:40pm 27.9 SSE 7 11 1011.3 - - - Partly cloudy 10 - - - -
15/06:30pm 28.1 SSE 8 9 1011.3 - - - Partly cloudy 10 - - - -
15/06:20pm 28.5 SSE 7 11 1011.2 - - - Partly cloudy 10 - - - -
15/06:10pm 28.7 SSE 8 11 1011.2 - - - Partly cloudy 10 - - - -
15/06:00pm 29.3 SSE 7 8 1011.1 - - - - 10 - - - -
15/05:50pm 29.7 SSE 7 10 1011.0 - - - Partly cloudy 10 - - - -
15/05:40pm 29.8 SSE 7 12 1010.9 - - - Partly cloudy 10 - - - -
15/05:30pm 29.4 S 6 10 1010.9 - - - Partly cloudy 10 - - - -
15/05:20pm 29.3 SSE 8 7 1010.8 - - - Partly cloudy 10 - - - -
15/05:10pm 28.9 SSE 8 9 1010.8 - - - Partly cloudy 10 - - - -
15/05:00pm 30.2 SE 7 12 1010.8 - - - Partly cloudy 10 - - - -
15/04:50pm 31.0 SE 6 8 1010.8 - - - Partly cloudy 10 - - - -
15/04:40pm 31.5 SE 7 7 1010.7 - - - Partly cloudy 10 - - - -
15/04:30pm 29.6 SSE 7 7 1010.8 - - - Partly cloudy 10 - - - -
15/04:20pm 31.5 SE 7 7 1010.8 - - - Partly cloudy 10 - - - -
15/04:10pm 30.7 SE 7 8 1010.8 - - - Partly cloudy 10 - - - -
15/04:00pm 31.3 SSE 7 9 1010.9 - - - Partly cloudy 10 - - - -
15/03:50pm 31.3 SSE 8 10 1010.9 - - - Partly cloudy 10 - - - -
15/03:40pm 30.5 SE 7 10 1011.0 - - - Partly cloudy 10 - - - -
15/03:30pm 30.9 SE 7 9 1011.2 - - - Partly cloudy 10 - - - -
15/03:20pm 31.5 SE 7 6 1011.3 - - - Partly cloudy 10 - - - -
15/03:10pm 30.8 SE 8 9 1011.3 - - - Partly cloudy 10 - - - -
15/03:00pm 30.8 SE 7 11 1011.5 - - - - 10 - - - -
15/02:50pm 31.0 SE 6 6 1011.6 - - - - 10 - - - -
15/02:40pm 31.1 SE 7 7 1011.7 - - - - 10 - - - -
15/02:30pm 30.5 ESE 7 10 1011.9 - - - - 10 - - - -
15/02:20pm 30.7 SE 7 7 1012.1 - - - - 10 - - - -
15/02:10pm 30.8 SE 7 8 1012.2 - - - Partly cloudy 10 - - - -
15/02:00pm 30.3 ESE 8 10 1012.4 - - - Partly cloudy 10 - - - -
15/01:50pm 28.6 SE 9 10 1012.5 - - - Partly cloudy 10 - - - -
15/01:40pm 30.2 SE 8 10 1012.7 - - - Partly cloudy 10 - - - -
15/01:30pm 31.0 ESE 7 10 1012.7 - - - Partly cloudy 10 - - - -
15/01:20pm 30.1 ESE 7 9 1012.8 - - - Partly cloudy 10 - - - -
15/01:10pm 31.4 ESE 8 8 1012.9 - - - Partly cloudy 10 - - - -
15/01:00pm 30.8 ESE 7 8 1012.9 - - - Partly cloudy 10 - - - -
15/12:50pm 30.7 ESE 6 9 1013.0 - - - Partly cloudy 10 - - - -
15/12:40pm 30.6 ESE 6 7 1013.1 - - - - 10 - - - -
15/12:30pm 29.8 ESE 7 8 1013.3 - - - Partly cloudy 10 - - - -
15/12:20pm 30.8 ESE 8 8 1013.5 - - - - 10 - - - -
15/12:10pm 30.4 ESE 8 7 1013.5 - - - - 10 - - - -
15/12:00pm 30.1 ESE 7 8 1013.6 - - - - 10 - - - -
15/11:50am 29.2 ESE 7 8 1013.8 - - - - 10 - - - -
15/11:40am 30.4 ESE 7 7 1013.9 - - - - 10 - - - -
15/11:30am 29.6 ESE 8 9 1014.0 - - - - 10 - - - -
15/11:20am 29.6 E 7 8 1014.1 - - - - 10 - - - -
15/11:10am 27.5 E 6 8 1014.2 - - - - 10 - - - -
15/11:00am 28.0 ESE 8 10 1014.2 - - - - 10 - - - -
15/10:50am 28.7 ESE 9 10 1014.2 - - - - 10 - - - -
15/10:40am 29.1 E 8 9 1014.3 - - - - 10 - - - -
15/10:30am 28.6 ESE 7 9 1014.4 - - - - 10 - - - -
15/10:20am 27.8 ESE 8 8 1014.4 - - - - 10 - - - -
15/10:10am 27.6 E 7 8 1014.4 - - - - 10 - - - -
15/10:00am 27.4 ESE 6 11 1014.4 - - - - 10 - - - -
15/09:50am 27.4 ESE 7 9 1014.4 - - - - 10 - - - -
15/09:40am 27.3 ESE 7 8 1014.4 - - - - 10 - - - -
15/09:30am 27.3 E 8 8 1014.3 - - - - 10 - - - -
15/09:20am 27.4 E 8 10 1014.4 - - - Partly cloudy 10 - - - -
15/09:10am 26.9 E 6 7 1014.3 - - - Partly cloudy 10 - - - -
15/09:00am 27.2 E 6 9 1014.2 - - - Partly cloudy 10 - - - -
15/08:50am 26.9 E 6 9 1014.0 - - - Partly cloudy 10 - - - -
15/08:40am 26.8 E 6 7 1013.8 - - - - 10 - - - -
15/08:30am 26.8 E 6 7 1013.8 - - - - 10 - - - -

Other Formats:

Comma delimited format used in spreadsheet applications
http://www.bom.gov.au/fwo/IDD60701/IDD60701.95100.axf

JavaScript Object Notation format (JSON) in row-major order
http://www.bom.gov.au/fwo/IDD60701/IDD60701.95100.json